Weather History for Marysville, OH

Change the Weather History Date:

Wednesday, January 2, 2013

  Actual Average (KDLZ) Record (KDLZ)
Temperature  
Mean Temperature 12 °F -  
Max Temperature 23 °F 34 °F 63 °F (1985)
Min Temperature 2 °F 18 °F -5 °F (1968)
Degree Days  
Heating Degree Days 52    
Moisture  
Dew Point 6 °F    
Average Humidity 79    
Maximum Humidity 91    
Minimum Humidity 51    
Precipitation  
Precipitation 0.03 in - - ()
Sea Level Pressure  
Sea Level Pressure 30.17 in    
Wind  
Wind Speed 3 mph (WSW)    
Max Wind Speed 10 mph    
Max Gust Speed -    
Visibility 7 miles    
Events      
Averages and records for this station are not official NWS values.
T = Trace of Precipitation, MM = Missing Value Source: NWS Daily Summary

Daily Weather History Graph

Daily Weather History Graph

Search for Another Location

Airport:

Trip Planner

Search our weather history database for the weather conditions in past years. The results will help you decide how hot, cold, wet, or windy it might be!

Date:

Astronomy

Jan. 02, 2013 Rise Set
Actual Time 7:56 AM EST 5:19 PM EST
Civil Twilight 7:25 AM EST 5:49 PM EST
Nautical Twilight 6:51 AM EST 6:23 PM EST
Astronomical Twilight 6:18 AM EST 6:56 PM EST
Moon 10:51 PM EST 10:36 AM EST
Length of Visible Light 10h 24m
Length of Day
9h 23m
Waning Gibbous, 75% of the Moon is Illuminated
Jan 2
Waning Gibbous
Jan 4
Last Quarter
Jan 11
New
Jan 18
First Quarter
Jan 26
Full

Hourly Weather History & Observations

Time (EST) Temp. Windchill Dew Point Humidity Pressure Visibility Wind Dir Wind Speed Gust Speed Precip Events Conditions
12:14 AM 15.1 °F - 10.8 °F 83% 30.10 in 10.0 mi Calm Calm - N/A   Overcast
12:34 AM 12.2 °F - 8.6 °F 85% 30.10 in 10.0 mi Calm Calm - N/A   Scattered Clouds
12:54 AM 9.0 °F 2.4 °F 5.9 °F 87% 30.10 in 10.0 mi WSW 3.5 mph - N/A   Clear
1:14 AM 9.5 °F 3.0 °F 6.6 °F 88% 30.09 in 10.0 mi SSW 3.5 mph - N/A   Clear
1:34 AM 10.8 °F 2.7 °F 8.2 °F 90% 30.10 in 10.0 mi SW 4.6 mph - N/A   Scattered Clouds
1:54 AM 10.2 °F 3.8 °F 7.9 °F 90% 30.10 in 10.0 mi SW 3.5 mph - N/A   Mostly Cloudy
2:14 AM 9.3 °F -1.7 °F 6.3 °F 87% 30.10 in 10.0 mi SW 6.9 mph - N/A   Scattered Clouds
2:34 AM 8.8 °F 0.4 °F 5.9 °F 88% 30.10 in 10.0 mi WSW 4.6 mph - N/A   Clear
2:54 AM 8.8 °F 2.2 °F 6.4 °F 90% 30.11 in 7.0 mi WSW 3.5 mph - N/A   Clear
3:14 AM 8.1 °F -0.5 °F 5.5 °F 89% 30.11 in 7.0 mi WSW 4.6 mph - N/A   Clear
3:34 AM 7.9 °F -0.7 °F 5.0 °F 88% 30.12 in 7.0 mi WSW 4.6 mph - N/A   Scattered Clouds
3:54 AM 6.6 °F -2.2 °F 3.6 °F 87% 30.13 in 7.0 mi West 4.6 mph - N/A   Scattered Clouds
4:14 AM 8.1 °F 1.4 °F 5.2 °F 88% 30.13 in 10.0 mi West 3.5 mph - N/A   Clear
4:34 AM 7.7 °F 1.0 °F 4.6 °F 87% 30.13 in 10.0 mi West 3.5 mph - N/A   Clear
4:54 AM 7.9 °F 1.2 °F 5.2 °F 89% 30.12 in 7.0 mi SW 3.5 mph - N/A   Clear
5:14 AM 6.1 °F -0.9 °F 3.2 °F 88% 30.12 in 7.0 mi West 3.5 mph - N/A   Clear
5:34 AM 7.0 °F -1.7 °F 4.5 °F 89% 30.13 in 7.0 mi West 4.6 mph - N/A   Clear
5:54 AM 5.4 °F -1.7 °F 2.1 °F 86% 30.14 in 5.0 mi West 3.5 mph - N/A   Clear
6:14 AM 4.3 °F - 0.9 °F 86% 30.13 in 3.0 mi Calm Calm - N/A   Clear
6:34 AM 4.5 °F -2.7 °F 1.0 °F 86% 30.13 in 4.0 mi WSW 3.5 mph - N/A   Clear
6:54 AM 5.7 °F -1.3 °F 2.3 °F 86% 30.14 in 4.0 mi WSW 3.5 mph - N/A   Clear
7:14 AM 5.2 °F -1.9 °F 1.6 °F 85% 30.14 in 4.0 mi WSW 3.5 mph - N/A   Clear
7:34 AM 7.2 °F 0.3 °F 3.7 °F 86% 30.15 in 2.0 mi WSW 3.5 mph - N/A   Clear
7:54 AM 4.8 °F - 1.2 °F 85% 30.15 in 2.0 mi Calm Calm - N/A   Clear
8:14 AM 3.6 °F - -0.8 °F 82% 30.15 in 1.5 mi Calm Calm - N/A   Unknown
8:34 AM 2.8 °F - -1.5 °F 82% 30.15 in 2.5 mi Calm Calm - N/A   Clear
8:54 AM 3.4 °F -4.0 °F -0.4 °F 84% 30.17 in 3.0 mi SW 3.5 mph - N/A   Clear
9:14 AM 3.2 °F -4.2 °F -0.8 °F 84% 30.18 in 3.0 mi West 3.5 mph - N/A   Clear
9:34 AM 4.1 °F -5.1 °F -0.0 °F 83% 30.18 in 4.0 mi West 4.6 mph - N/A   Clear
9:54 AM 7.2 °F -3.0 °F 4.5 °F 89% 30.19 in 4.0 mi West 5.8 mph - N/A   Clear
10:14 AM 13.5 °F 5.8 °F 10.8 °F 89% 30.21 in 5.0 mi West 4.6 mph - N/A   Clear
10:34 AM 13.6 °F 4.6 °F 10.4 °F 87% 30.21 in 10.0 mi West 5.8 mph - N/A   Clear
10:54 AM 16.5 °F 9.4 °F 14.0 °F 90% 30.21 in 10.0 mi West 4.6 mph - N/A   Clear
11:14 AM 17.6 °F 8.2 °F 14.9 °F 89% 30.22 in 10.0 mi West 6.9 mph - N/A   Clear
11:34 AM 20.3 °F 13.8 °F 12.0 °F 70% 30.21 in 10.0 mi West 4.6 mph - N/A   Clear
11:54 AM 21.9 °F 12.5 °F 10.8 °F 62% 30.21 in 10.0 mi West 8.1 mph - N/A   Clear
12:14 PM 22.1 °F 13.7 °F 9.1 °F 58% 30.20 in 10.0 mi West 6.9 mph - N/A   Clear
12:34 PM 22.6 °F 13.4 °F 9.5 °F 57% 30.20 in 10.0 mi WNW 8.1 mph - N/A   Clear
12:54 PM 22.6 °F 13.4 °F 8.8 °F 55% 30.19 in 10.0 mi WNW 8.1 mph - N/A   Clear
1:14 PM 22.6 °F 11.9 °F 8.6 °F 55% 30.19 in 10.0 mi West 10.4 mph - N/A   Clear
1:34 PM 22.8 °F 12.9 °F 8.4 °F 54% 30.18 in 10.0 mi West 9.2 mph - N/A   Clear
1:54 PM 23.0 °F 13.9 °F 7.2 °F 51% 30.17 in 10.0 mi West 8.1 mph - N/A   Clear
2:14 PM 23.2 °F 15.0 °F 7.3 °F 51% 30.17 in 10.0 mi WNW 6.9 mph - N/A   Clear
2:34 PM 22.1 °F 14.7 °F 7.7 °F 54% 30.17 in 10.0 mi WSW 5.8 mph - N/A   Clear
2:54 PM 22.6 °F 13.4 °F 7.7 °F 53% 30.18 in 10.0 mi West 8.1 mph - N/A   Clear
3:14 PM 22.5 °F 13.2 °F 7.3 °F 52% 30.18 in - West 8.1 mph - 0.03 in   Clear
3:34 PM 21.6 °F 14.0 °F 7.5 °F 55% 30.18 in 10.0 mi West 5.8 mph - 0.03 in   Clear
3:54 PM 19.2 °F 9.3 °F 9.7 °F 66% 30.19 in 10.0 mi SSW 8.1 mph - 0.03 in   Clear
4:14 PM 19.8 °F 10.8 °F 10.0 °F 66% 30.18 in 10.0 mi South 6.9 mph - N/A   Clear
4:34 PM 19.6 °F 13.0 °F 9.5 °F 65% 30.18 in 10.0 mi SSW 4.6 mph - N/A   Clear
4:54 PM 18.5 °F 10.4 °F 9.3 °F 67% 30.19 in 10.0 mi SSW 5.8 mph - N/A   Clear
5:14 PM 18.1 °F 10.0 °F 9.5 °F 69% 30.18 in 10.0 mi SSW 5.8 mph - N/A   Clear
5:34 PM 18.0 °F 11.1 °F 10.0 °F 71% 30.18 in 10.0 mi SSW 4.6 mph - N/A   Clear
5:54 PM 17.4 °F 10.4 °F 10.2 °F 73% 30.18 in 10.0 mi SSW 4.6 mph - N/A   Clear
6:14 PM 14.9 °F 7.5 °F 9.3 °F 79% 30.19 in 7.0 mi SW 4.6 mph - N/A   Clear
6:34 PM 13.5 °F 5.8 °F 8.2 °F 80% 30.20 in 7.0 mi SW 4.6 mph - N/A   Clear
6:54 PM 11.8 °F - 7.2 °F 81% 30.20 in 7.0 mi Calm Calm - N/A   Clear
7:14 PM 12.9 °F - 8.4 °F 82% 30.20 in 7.0 mi Calm Calm - N/A   Clear
7:34 PM 12.0 °F - 7.9 °F 83% 30.20 in 7.0 mi Calm Calm - N/A   Clear
7:54 PM 7.3 °F - 3.2 °F 83% 30.20 in 5.0 mi Calm Calm - N/A   Clear
8:34 PM 10.9 °F - 8.8 °F 91% 30.21 in 5.0 mi Calm Calm - N/A   Clear
8:54 PM 10.6 °F - 7.3 °F 87% 30.21 in 5.0 mi Calm Calm - N/A   Clear
9:14 PM 9.5 °F - 6.3 °F 87% 30.21 in 5.0 mi Calm Calm - N/A   Clear
9:34 PM 6.6 °F -0.3 °F 3.6 °F 87% 30.21 in 4.0 mi SW 3.5 mph - N/A   Clear
9:54 PM 8.4 °F 1.8 °F 6.1 °F 90% 30.21 in 4.0 mi SW 3.5 mph - N/A   Clear
10:14 PM 7.5 °F 0.8 °F 5.0 °F 89% 30.20 in 4.0 mi WSW 3.5 mph - N/A   Clear
10:34 PM 7.5 °F - 4.6 °F 88% 30.20 in 4.0 mi Calm Calm - N/A   Clear
10:54 PM 5.9 °F - 2.8 °F 87% 30.20 in 4.0 mi Calm Calm - N/A   Clear
11:14 PM 4.8 °F - 1.8 °F 87% 30.20 in 2.5 mi Calm Calm - N/A   Clear
11:34 PM 4.6 °F - 1.4 °F 86% 30.19 in 3.0 mi Calm Calm - N/A   Clear
11:45 PM 3.0 °F - -0.9 °F 84% 30.19 in 4.0 mi Calm Calm - N/A   Clear